Tracking 17138 objects as of 7-July-2015
HD Live streaming from Space Station

BKA 2

Track BKA 2 now!
10-day predictions
BKA 2 is classified as:


NORAD ID: 38708
Int'l Code: 2012-039B
Perigee: 512.5 km
Apogee: 515.0 km
Inclination: 97.4 °
Period: 94.8 minutes
Semi major axis: 6884 km
RCS: 1.9657 m2 (large)
Launch date: July 22, 2012
Source: (BELA)

The BKA satellite is a Belarusian satellite analogue of the Canopus-B, a satellite designed for remote sensing of the Earth. It weighs about 400 kilograms and it is to work on a circular orbit at a height of 510 km.
Your satellite tracking list
Your tracking list is empty





NASA's NSSDC Master Catalog

Two Line Element Set (TLE):
1 38708U 12039B   15188.41401163  .00001002  00000-0  50062-4 0  9994
2 38708 097.4275 101.8415 0001801 092.8929 041.3033 15.19740477164034

Source of the keplerian elements: AFSPC

N2YO: 426